Tracking 20945 objects as of 8-Jul-2020
HD Live streaming from Space Station
objects crossing your sky now

FENGYUN 1C DEB

Track FENGYUN 1C DEB now!
10-day predictions


NORAD ID: 30680
Int'l Code: 1999-025AQN
Perigee: 840.5 km
Apogee: 1,382.2 km
Inclination: 99.5 °
Period: 107.4 minutes
Semi major axis: 7482 km
RCS: 0.0144 m2 (small)
Launch date: May 10, 1999
Source: People's Republic of China (PRC)
Launch site: Taiyaun Space Center, China (TSC)

Note: This is SATELLITE DEBRIS
aabbcc
Your satellite tracking list
Your tracking list is empty




NASA's NSSDC Master Catalog

Two Line Element Set (TLE):
1 30680U 99025AQN 20189.72202439 -.00002818 +00000-0 -33993-2 0  9991
2 30680 099.5220 292.7424 0361961 058.9513 304.6627 13.41357141655535
Source of the keplerian elements: AFSPC